Wind_Speed
48 47 46 45 43 42 40 39 38 36 35 33 32 31 31 31 30 30 30 30 30 29 29 29 29 31 32 33 34 35 35 35 35 34 34 34 34 32 30 29 28 29 29
53 52 51 50 49 47 45 42 40 39 37 35 34 33 32 31 31 30 30 30 30 29 28 27 27 28 29 30 31 32 33 33 33 33 33 33 32 31 30 29 28 27 27
56 56 56 56 55 54 51 47 46 44 41 38 37 36 34 33 32 31 30 29 29 28 27 27 26 26 27 28 29 30 30 31 31 31 31 31 30 30 30 30 29 28 27
60 61 61 62 61 59 57 54 52 50 47 44 42 40 38 36 34 32 31 30 29 28 27 27 25 24 24 26 27 28 28 29 29 29 29 29 30 31 30 28 29 27 27
68 68 68 67 66 65 63 60 58 56 53 50 47 44 41 38 36 34 32 31 29 28 27 26 24 23 22 23 23 25 26 26 27 27 28 29 29 29 28 27 26 25 25
74 75 76 75 74 72 70 67 65 63 60 56 52 49 45 42 39 36 34 32 30 28 27 25 24 23 22 21 21 23 25 26 26 28 29 30 29 26 25 25 25 24 23
82 82 83 82 81 78 76 73 71 69 66 62 56 51 47 44 41 38 36 33 31 29 27 25 24 22 22 22 22 23 25 27 28 28 28 28 27 26 24 23 22 21 20
83 83 84 84 83 81 80 78 76 73 69 65 58 52 48 45 42 39 37 34 31 29 27 25 23 22 21 22 22 24 24 24 26 26 25 24 23 22 21 20 19 19 18
72 73 73 73 73 73 72 72 70 68 65 61 56 52 48 46 43 40 37 34 31 29 27 24 23 22 21 21 22 23 23 24 24 23 22 20 19 20 19 18 17 16 14
51 52 53 53 53 54 55 55 56 56 56 54 52 49 46 44 42 40 37 33 30 28 25 24 22 21 20 21 20 20 21 21 21 20 19 18 17 17 16 14 14 13 12
34 34 33 34 34 35 37 39 40 42 44 46 47 47 46 44 41 39 36 33 30 27 25 23 20 19 18 18 18 18 18 18 18 17 17 16 15 14 13 12 11 11 10
31 29 28 28 28 28 27 28 29 31 33 37 41 44 46 46 42 39 37 33 30 27 24 22 20 19 18 18 18 17 17 16 16 16 15 15 13 12 12 11 10 10 9
32 30 28 26 26 25 25 26 27 28 29 30 34 40 45 46 44 40 36 33 30 27 25 22 21 20 20 19 19 18 17 17 16 15 14 13 13 12 12 11 10 9 8
34 32 30 29 28 27 26 26 26 27 29 29 32 39 43 44 43 39 36 33 30 28 25 24 22 20 20 20 19 19 18 17 16 15 15 14 13 13 12 11 9 9 7
37 35 33 31 30 29 27 26 26 26 28 30 32 37 41 42 43 39 36 34 31 28 27 25 23 22 21 21 20 19 18 17 16 16 15 15 14 12 12 11 10 9 7
39 37 34 33 31 30 28 27 26 26 28 30 33 35 39 42 43 40 37 35 33 31 29 27 25 24 23 22 20 19 18 17 17 16 16 15 14 13 12 12 11 10 8
38 36 34 32 31 29 28 27 26 25 25 28 32 33 37 41 43 41 39 37 35 33 31 28 27 26 24 22 20 19 18 18 17 17 17 15 14 14 13 12 12 11 10
36 34 32 31 29 27 27 26 25 24 24 26 29 32 37 42 44 42 40 38 36 34 32 30 28 26 24 22 21 19 19 19 18 18 17 16 15 14 14 13 12 12 11
31 30 29 27 26 25 24 24 23 23 23 25 28 33 39 43 45 44 41 38 36 34 32 30 29 26 24 22 21 19 19 19 19 18 18 17 16 15 15 14 14 13 13
27 26 25 24 23 22 22 22 22 22 23 26 29 34 40 43 45 44 41 38 37 35 33 31 28 26 23 22 20 19 19 19 19 19 18 18 17 16 16 15 15 15 15
22 21 20 20 19 18 19 20 21 23 25 28 32 37 41 44 44 41 39 37 36 34 32 30 28 25 23 21 19 19 19 19 19 19 18 18 17 17 17 17 16 16 17
15 15 15 15 15 17 18 20 21 24 28 31 35 40 43 44 42 40 38 36 35 33 31 29 27 24 22 20 19 18 18 18 19 19 18 18 18 17 17 17 17 18 18
11 12 13 15 17 18 20 23 25 28 31 35 38 40 43 43 41 40 38 36 34 31 29 27 25 23 21 19 18 18 18 18 18 18 19 19 18 18 18 19 19 19 20
7 11 14 17 20 21 24 27 29 31 34 37 39 41 41 41 40 38 37 34 32 30 27 25 23 21 19 18 17 17 17 17 17 17 18 18 19 19 20 20 21 21 22
12 17 21 23 24 26 28 30 31 32 35 37 38 40 40 39 37 35 34 32 30 28 25 23 21 19 18 17 17 16 16 16 17 17 18 18 19 20 20 21 22 22 23
21 24 26 27 28 30 31 32 32 33 36 37 37 38 38 36 34 32 31 29 27 25 23 21 19 18 17 17 16 15 15 16 16 17 17 18 19 20 21 22 23 24 24
Wind_Direction
281 281 281 281 282 282 283 284 285 286 287 288 291 293 296 298 300 302 304 305 304 302 298 290 281 273 268 263 261 259 258 257 257 256 256 257 257 257 254 252 250 248 250
279 280 281 282 282 282 282 283 285 286 286 286 289 290 293 295 296 298 300 303 303 301 298 293 284 275 268 263 260 257 255 253 254 254 254 253 252 250 249 246 246 247 250
278 278 279 280 281 281 280 281 282 283 283 284 286 287 289 291 292 294 295 299 300 299 296 293 286 277 269 262 257 254 251 250 250 251 250 248 246 245 246 246 245 247 250
277 277 278 278 278 279 279 279 279 280 279 280 282 284 286 287 287 288 291 293 295 294 293 291 286 278 270 262 255 251 247 245 244 245 244 242 240 240 242 243 244 247 249
274 273 273 273 273 274 275 275 276 276 277 277 279 281 282 283 284 284 286 287 289 289 288 286 282 276 270 262 252 246 244 242 241 239 239 236 236 237 238 242 245 245 245
272 272 270 269 269 270 270 271 272 273 275 275 275 277 277 277 278 278 280 281 282 283 283 282 278 272 268 259 251 247 241 238 235 236 240 240 240 237 237 240 241 241 242
273 274 273 273 272 271 271 272 273 273 274 274 274 273 273 273 272 272 273 274 276 277 277 277 274 270 265 257 250 245 241 238 237 237 238 241 240 236 236 235 237 237 238
275 274 274 274 273 273 273 272 272 272 272 271 270 267 266 266 265 266 265 267 268 269 271 271 269 265 260 255 248 243 241 239 236 235 235 233 230 231 232 232 233 234 236
279 278 276 275 273 272 271 270 269 267 266 265 263 260 258 257 257 258 258 258 261 262 264 264 262 258 252 247 244 240 238 235 235 232 229 228 230 230 229 228 226 226 229
285 282 280 278 275 272 269 266 264 261 259 256 252 249 246 245 247 249 249 249 251 253 254 254 253 249 244 238 235 233 230 227 226 222 221 221 219 217 214 214 215 219 225
295 292 289 285 280 275 269 264 259 256 254 249 243 238 233 231 234 238 240 241 242 243 243 243 241 236 232 229 227 223 217 214 212 211 208 204 202 202 202 205 212 218 222
299 296 292 287 282 277 270 261 255 252 248 244 235 228 223 221 222 226 231 231 233 234 233 232 228 224 222 218 214 210 204 199 196 194 191 190 192 195 199 205 206 208 214
298 296 293 288 284 279 273 266 258 252 246 241 231 222 218 216 214 217 219 222 223 223 222 219 215 213 209 205 201 199 196 190 185 182 183 186 190 193 194 194 196 203 210
296 293 289 286 282 278 273 268 262 255 246 240 232 224 218 213 210 210 209 213 214 213 211 207 203 200 197 196 194 191 187 185 183 184 185 185 186 186 187 190 194 198 205
292 289 286 282 279 277 272 266 261 257 250 243 234 226 219 212 206 204 202 205 205 203 202 197 194 192 191 190 187 185 186 186 185 183 183 183 184 186 188 190 194 199 208
290 285 281 278 275 272 268 263 259 256 251 243 231 223 217 208 201 196 195 196 196 196 194 191 190 190 189 188 186 185 185 185 185 185 186 187 190 192 193 197 202 207 218
287 283 278 274 271 267 262 259 256 253 245 235 226 218 211 203 193 188 190 191 191 191 189 188 188 187 186 186 187 188 189 189 190 191 192 193 195 197 200 206 212 220 232
284 280 276 271 266 261 257 254 250 245 238 231 221 210 203 194 185 184 186 187 187 187 185 184 185 185 186 188 189 191 193 194 194 195 197 199 202 205 211 217 225 235 248
281 276 271 266 260 255 251 246 241 235 229 219 208 198 193 187 181 182 183 183 183 182 182 182 184 185 187 190 192 194 196 197 198 200 204 207 210 216 223 230 239 250 260
276 272 266 260 254 247 240 232 227 220 212 201 194 190 184 180 179 179 178 179 179 179 180 181 183 186 189 191 194 197 199 201 203 206 210 214 219 226 234 241 250 259 268
272 264 256 248 240 229 220 215 207 200 193 187 185 181 178 177 175 175 176 178 178 178 179 180 183 186 189 192 195 199 202 205 208 212 216 221 228 235 243 251 259 267 275
264 250 235 225 215 205 199 193 186 181 180 178 175 172 173 172 171 172 174 176 177 177 178 180 183 186 190 194 198 202 206 209 213 218 223 229 235 242 249 256 263 271 277
244 222 208 199 189 181 176 172 171 171 171 170 168 168 169 168 169 171 173 175 176 177 178 181 184 188 192 196 200 205 210 214 219 224 230 237 243 250 256 261 267 274 279
188 179 172 168 164 161 161 160 161 162 164 164 165 166 166 167 169 171 173 174 175 176 178 181 184 187 192 198 203 209 215 220 225 230 236 242 248 254 260 265 271 277 281
139 145 146 146 147 148 150 152 154 155 158 160 162 163 164 166 167 169 171 172 174 176 179 182 185 189 194 200 206 213 219 223 228 234 239 245 251 258 264 269 275 279 283
124 130 132 135 138 141 145 149 150 152 156 159 160 161 162 164 166 168 170 172 174 177 180 184 189 194 200 205 209 215 220 226 231 237 243 249 256 263 269 274 278 281 285
Height
5777 5776 5774 5773 5771 5770 5768 5766 5765 5763 5761 5760 5758 5755 5753 5750 5747 5744 5740 5737 5733 5730 5727 5725 5723 5722 5722 5723 5724 5726 5727 5729 5731 5733 5735 5736 5738 5740 5742 5743 5745 5747 5749
5763 5761 5759 5758 5756 5755 5754 5753 5752 5751 5750 5748 5747 5745 5743 5741 5738 5735 5732 5729 5726 5723 5720 5717 5715 5714 5714 5714 5715 5717 5718 5720 5722 5724 5726 5728 5730 5732 5734 5737 5738 5740 5742
5748 5745 5743 5741 5740 5739 5738 5738 5738 5738 5737 5736 5735 5734 5733 5731 5729 5726 5724 5721 5718 5715 5712 5710 5707 5706 5705 5706 5707 5708 5710 5712 5714 5716 5718 5720 5722 5725 5727 5730 5732 5734 5736
5730 5727 5725 5723 5722 5721 5721 5721 5722 5722 5723 5723 5722 5722 5721 5720 5719 5717 5715 5713 5710 5708 5705 5703 5700 5699 5698 5698 5699 5700 5702 5704 5706 5709 5711 5712 5715 5717 5720 5722 5725 5727 5729
5710 5707 5705 5703 5702 5702 5702 5702 5703 5705 5706 5707 5708 5708 5709 5708 5708 5707 5706 5704 5702 5700 5698 5696 5694 5692 5691 5691 5692 5693 5695 5697 5699 5701 5704 5706 5708 5711 5713 5716 5718 5720 5723
5688 5685 5682 5680 5679 5680 5680 5682 5683 5686 5688 5690 5692 5694 5695 5696 5696 5696 5695 5694 5693 5691 5690 5688 5687 5685 5685 5684 5685 5687 5689 5690 5692 5695 5698 5700 5702 5704 5707 5710 5713 5715 5718
5664 5661 5657 5656 5655 5655 5656 5658 5660 5664 5667 5671 5674 5677 5679 5681 5683 5684 5685 5684 5684 5683 5681 5680 5679 5679 5678 5678 5679 5680 5682 5684 5687 5689 5691 5694 5696 5699 5702 5704 5707 5710 5712
5637 5634 5632 5631 5630 5630 5632 5634 5637 5641 5646 5650 5655 5659 5663 5666 5669 5672 5673 5674 5674 5674 5673 5673 5672 5672 5672 5672 5673 5675 5676 5679 5681 5683 5686 5688 5690 5693 5697 5700 5702 5705 5707
5608 5606 5604 5604 5604 5604 5606 5609 5613 5617 5622 5628 5635 5641 5646 5651 5655 5658 5661 5663 5664 5665 5665 5665 5665 5665 5666 5667 5668 5669 5671 5673 5676 5678 5681 5683 5686 5689 5693 5695 5698 5701 5704
5587 5584 5583 5581 5581 5581 5583 5586 5589 5594 5600 5606 5614 5621 5628 5635 5640 5645 5649 5652 5654 5656 5657 5657 5658 5659 5660 5662 5663 5664 5666 5669 5672 5674 5677 5680 5683 5686 5689 5692 5695 5698 5700
5572 5570 5568 5567 5566 5566 5566 5568 5571 5575 5580 5586 5593 5602 5610 5618 5625 5632 5637 5642 5644 5646 5648 5650 5651 5653 5655 5657 5659 5661 5663 5665 5668 5671 5674 5677 5680 5684 5687 5689 5692 5695 5697
5564 5561 5559 5557 5556 5555 5555 5556 5558 5561 5565 5570 5576 5583 5593 5602 5610 5618 5625 5631 5635 5638 5641 5643 5646 5648 5651 5653 5656 5658 5660 5663 5666 5669 5672 5675 5679 5682 5684 5687 5690 5692 5694
5555 5552 5550 5549 5547 5546 5546 5547 5548 5550 5553 5557 5562 5569 5577 5587 5596 5605 5613 5620 5625 5630 5634 5637 5641 5644 5647 5650 5653 5656 5659 5662 5664 5667 5671 5674 5677 5680 5683 5685 5688 5690 5692
5545 5543 5541 5539 5538 5538 5537 5537 5538 5540 5543 5546 5551 5557 5564 5574 5584 5594 5603 5610 5617 5623 5627 5631 5635 5640 5644 5647 5651 5654 5657 5660 5663 5666 5669 5673 5675 5678 5681 5683 5686 5688 5689
5533 5531 5529 5528 5528 5527 5527 5528 5529 5531 5533 5536 5540 5545 5553 5562 5574 5584 5594 5602 5610 5617 5622 5627 5632 5637 5641 5645 5649 5652 5656 5659 5662 5665 5668 5671 5674 5677 5679 5682 5684 5686 5687
5519 5517 5516 5516 5516 5516 5517 5517 5519 5521 5523 5526 5530 5535 5543 5552 5564 5575 5585 5595 5603 5610 5617 5623 5628 5634 5639 5643 5647 5651 5654 5658 5661 5664 5667 5670 5673 5675 5678 5680 5682 5683 5685
5504 5503 5502 5503 5503 5504 5505 5507 5509 5511 5513 5517 5521 5527 5535 5544 5556 5568 5579 5588 5597 5604 5612 5619 5625 5631 5636 5641 5645 5649 5653 5656 5659 5662 5665 5668 5671 5673 5675 5677 5679 5681 5682
5490 5489 5489 5489 5491 5492 5494 5496 5499 5502 5505 5509 5514 5520 5528 5539 5551 5563 5574 5583 5592 5600 5608 5616 5623 5629 5634 5639 5643 5647 5651 5654 5657 5660 5663 5666 5669 5671 5673 5675 5676 5677 5678
5476 5476 5476 5477 5479 5482 5484 5486 5490 5494 5498 5503 5509 5516 5525 5536 5548 5559 5570 5580 5590 5598 5606 5613 5620 5626 5632 5637 5641 5645 5648 5652 5655 5658 5661 5664 5666 5669 5670 5672 5673 5673 5674
5463 5463 5464 5466 5469 5472 5475 5478 5482 5487 5493 5498 5506 5514 5524 5535 5546 5558 5569 5578 5587 5596 5604 5611 5618 5624 5630 5634 5639 5643 5646 5650 5653 5656 5659 5661 5664 5665 5667 5668 5668 5669 5669
5451 5452 5454 5457 5460 5464 5468 5473 5477 5483 5490 5497 5505 5514 5525 5537 5548 5559 5570 5579 5587 5595 5603 5610 5616 5622 5628 5632 5636 5640 5644 5647 5650 5653 5656 5658 5660 5662 5663 5663 5664 5664 5663
5442 5444 5447 5451 5455 5459 5464 5470 5475 5482 5490 5498 5507 5517 5528 5539 5550 5560 5570 5580 5588 5595 5602 5609 5615 5621 5626 5630 5634 5638 5641 5644 5647 5650 5652 5654 5656 5657 5658 5658 5658 5658 5657
5436 5439 5443 5447 5452 5458 5463 5470 5477 5485 5493 5502 5511 5521 5531 5542 5552 5562 5571 5580 5588 5596 5602 5609 5614 5619 5624 5628 5631 5635 5638 5641 5644 5646 5648 5650 5651 5652 5653 5653 5653 5652 5651
5433 5437 5442 5447 5453 5459 5466 5473 5481 5489 5498 5507 5517 5526 5536 5546 5555 5564 5573 5581 5589 5596 5602 5608 5613 5618 5622 5625 5629 5632 5635 5638 5640 5642 5644 5645 5646 5647 5647 5647 5647 5646 5645
5435 5439 5445 5451 5457 5464 5471 5479 5487 5495 5504 5513 5522 5532 5541 5550 5559 5567 5575 5583 5590 5597 5602 5607 5612 5616 5620 5623 5626 5629 5632 5634 5636 5638 5639 5641 5641 5642 5642 5641 5641 5640 5638
5443 5447 5452 5458 5465 5472 5480 5487 5495 5503 5512 5520 5529 5538 5547 5555 5563 5571 5578 5585 5591 5597 5602 5607 5611 5614 5617 5620 5623 5626 5628 5631 5632 5634 5635 5636 5636 5636 5636 5635 5634 5633 5631